DUCHIFAT-1 (40021 NORAD) Tracking and Keplerian Element Data

This shows tracking and keplerian element data for the satellite.

Feedback or suggestion? Click here.




ElementValue
Catalog40021
NameDUCHIFAT-1
Epoch Orbit45804
Epoch Day324.86146402
Epoch Year2022
RAAN278.1572
Inclination98.0312
Eccentricity0.0010376
Argument of Perigee242.1498
Mean Anonmoly117.867
Mean Motion14.9412005
Decay Rate3.214E-05
L11 40021U 14033M 22324.86146402 .00003214 00000+0 30600-3 0 9993
L22 40021 98.0312 278.1572 0010376 242.1498 117.8670 14.94120050458048



Live tracking and technical data element details for DUCHIFAT-1 (NORAD 40021). DUCHIFAT-1 can be tracked NOW for your location showing map with azimuth and elevation plus other details from your city location.







IsCatalogInMostPopularTable: catalog: 40021, numindb: 422
Update: records affected: 1



GetName: 40021 DUCHIFAT-1

Hit Count: updated at: Fri, 02 Dec 2022 12:22:59 GMT